Location: Bulze?ti de Jos
(46.2500°N, 22.7500°E)
Time: 01:50:45
(UTC+00:00)

Daily predictions for brighter satellites

Satellite Brightness Start Highest point End
(mag) Time Altitude Azimuth Time Altitude Azimuth Time Altitude Azimuth
CZ-3 R/B 4.5 01:45:41 43° SSW 01:45:41 43° SSW 01:56:57 10° SE
Cosmos 2082 Rocket 4.2 02:07:34 23° ESE 02:08:18 23° ESE 02:12:38 10° NE
COSMOS 2455 4.3 02:14:59 33° ENE 02:14:59 33° ENE 02:19:44 10° ESE
Cosmos 1980 Rocket 3.5 02:32:25 34° SE 02:32:25 34° SE 02:35:34 10° SE
Cosmos 2333 Rocket 4.3 02:51:54 16° N 02:54:46 22° NE 02:59:11 10° E
Cosmos 2360 Rocket 4.5 02:58:26 12° N 03:01:38 18° NE 03:05:22 10° E
Cosmos 2142 Rocket 4.4 03:02:15 43° N 03:04:29 82° E 03:10:41 10° S
USA 234 4.1 03:03:59 10° ENE 03:09:49 35° N 03:10:26 34° NNW
Helios 1A Rocket 4.3 03:19:11 10° SE 03:22:05 28° ENE 03:22:13 28° ENE
Cosmos 2322 Rocket 4.0 03:19:55 13° N 03:23:58 26° NE 03:28:39 10° ESE
SL-4 R/B 3.8 03:29:31 19° NE 03:29:31 19° NE 03:30:49 10° ENE
Nadezhda 4 Rocket 4.0 03:24:13 10° S 03:30:31 81° E 03:36:50 10° N
NOSS 2-1 (D) 3.5 03:32:01 70° ESE 03:32:01 70° ESE 03:36:15 10° SE
Cosmos 1726 Rocket 4.1 03:31:07 27° N 03:33:17 56° ENE 03:37:27 10° SSE
USA 59 Rocket -0.1 03:34:44 73° SSE 03:34:44 73° SSE 03:39:07 10° SE
Cosmos 2237 4.2 03:33:42 36° NNW 03:36:11 80° ENE 03:41:52 10° SSE
CZ-4 R/B 4.0 03:32:35 10° NNE 03:37:14 67° ESE 03:41:48 10° S
NOSS 3-1 (C) 4.0 03:34:05 32° NW 03:38:01 82° NE 03:46:53 10° SE
NOSS 2-1 (E) 3.3 03:39:18 76° NE 03:39:20 76° NE 03:43:56 10° SE
COSMOS 2406 3.5 03:34:45 10° SSW 03:40:21 66° ESE 03:46:00 10° NNE
Cosmos 841 Rocket 3.5 03:36:44 10° SSW 03:41:57 83° ESE 03:47:14 10° NNE
Cosmos 1833 Rocket 4.5 03:46:20 16° NNW 03:46:20 16° NNW 03:48:11 10° N
BREEZE-M DEB (TANK) 4.3 03:44:05 37° W 03:45:56 45° SW 03:49:41 10° SE
Cosmos 1933 4.1 03:52:07 35° SSW 03:52:07 35° SSW 03:54:31 10° S
SL-16 R/B 2.6 03:46:48 19° NNW 03:50:54 61° ENE 03:56:30 10° SE
Cosmos 2082 Rocket 2.2 03:49:32 33° SW 03:51:55 58° WNW 03:57:29 10° NNE
Cosmos 1892 Rocket 3.9 03:47:48 10° S 03:52:06 67° E 03:56:29 10° NNE
NOSS 2-1 (C) 3.3 03:58:58 56° W 03:59:23 60° SW 04:04:04 10° SSE
COSMOS 2455 3.0 03:58:09 34° WNW 04:00:29 54° WSW 04:06:18 10° S
Meteor 2-20 4.5 03:55:50 10° N 04:01:59 82° E 04:08:04 10° S
IRS-1D 3.4 03:58:08 10° N 04:03:04 64° WNW 04:08:04 10° SSW
Cosmos 1898 Rocket 3.6 04:02:27 35° NW 04:04:17 50° WSW 04:09:20 10° S
ATLAS 3B R/B 4.4 03:59:03 14° NNW 04:04:23 26° NNE 04:10:42 10° ENE
FengYun 1-2 T 4.5 04:00:24 10° N 04:05:47 46° WNW 04:11:08 10° SW
BREEZE-M DEB (TANK) 2.7 04:12:06 54° WNW 04:12:33 64° NNW 04:14:51 10° ENE
Cosmos 1980 Rocket 3.4 04:14:14 21° WSW 04:14:14 21° WSW 04:17:39 10° SSW
Cosmos 2278 3.8 04:09:09 14° NNW 04:14:01 79° ENE 04:19:40 10° SSE
Cosmos 1627 Rocket 4.4 04:11:13 10° S 04:17:20 84° W 04:23:30 10° N
Cosmos 2369 4.3 04:16:16 27° WNW 04:18:16 35° WSW 04:23:20 10° S
Cosmos-2242 3.1 04:14:03 10° N 04:18:18 75° E 04:22:29 10° SSE
COSMO-SKYMED 1 2.6 04:16:14 10° S 04:20:15 50° W 04:22:50 20° NNW
BREEZE-M DEB (TANK) 2.8 04:20:47 40° NW 04:21:23 49° N 04:25:44 10° ENE
Meteor 2-2 Rocket 4.3 04:16:28 10° N 04:22:12 87° E 04:27:59 10° S
SKYMED 2 4.2 04:18:37 10° SSW 04:22:34 34° W 04:24:01 27° WNW
Meteor 2-20 Rocket 4.3 04:18:22 10° N 04:24:11 85° E 04:29:53 10° S
Cosmos 2058 Rocket 3.0 04:20:11 10° N 04:24:40 85° W 04:29:04 10° S
Cosmos 1484 Rocket 2.3 04:24:43 10° NNE 04:28:09 85° WNW 04:31:32 10° SSW
Tiangong 0.0 04:27:21 15° SW 04:28:23 17° SSW 04:30:33 10° SSE
Cosmos 1937 Rocket 3.8 04:25:55 21° NW 04:28:56 41° WSW 04:33:42 10° S
NOAA 12 4.4 04:24:14 10° N 04:29:14 44° WNW 04:34:12 10° SW
Cosmos 220 Rocket 4.4 04:28:08 11° SW 04:31:43 35° WNW 04:35:31 10° N
Okean 1 2.9 04:29:45 10° N 04:33:20 86° W 04:36:53 10° S
ARIANE 5 R/B 4.3 04:29:04 10° NNE 04:33:51 36° E 04:38:38 10° SSE
Cosmos 2333 Rocket 2.2 04:33:56 10° NNW 04:39:44 79° WSW 04:45:27 10° SSE
BREEZE-M DEB (TANK) 4.5 04:16:08 10° WSW 04:40:14 76° NNW 04:45:22 10° ENE
NOSS 3-1 (A) 4.1 04:37:46 12° NW 04:44:34 85° SW 04:53:32 10° SSE
IRIDIUM 114 4.4 04:40:56 10° S 04:46:09 87° E 04:51:24 10° N
Cosmos 2360 Rocket 2.3 04:40:51 10° NNW 04:46:31 82° ENE 04:52:08 10° SSE
SMAP 3.6 04:42:18 10° NNE 04:46:57 65° ESE 04:51:34 10° S
Cosmos 2026 Rocket 4.1 04:41:13 10° SSW 04:47:03 49° WNW 04:52:58 10° N
BREEZE M DEB (TANK) 3.0 04:47:32 10° SW 04:49:46 43° SE 04:53:53 10° ENE
USA 234 4.0 04:45:51 10° E 04:51:55 41° NNE 04:57:47 11° NW
Landsat 7 4.4 04:48:18 10° NNE 04:52:55 60° E 04:57:30 10° S
Cosmos 1814 Rocket 4.1 04:47:47 10° SSW 04:53:00 86° ESE 04:58:19 10° NNE
CBERS-1 3.9 04:48:47 10° N 04:53:53 73° WNW 04:58:56 10° SSW
Cosmos 2237 Rocket 4.5 04:51:33 10° N 04:54:25 14° NE 04:57:15 10° ENE
Helios 1A Rocket 3.9 04:52:20 10° SW 04:54:42 18° W 04:55:47 16° WNW
IRIDIUM 103 4.3 04:50:06 10° S 04:55:19 79° W 05:00:34 10° N
IGS 5A 3.5 04:55:14 10° N 04:59:06 48° WNW 05:02:56 10° SSW
Cosmos 1758 Rocket 3.5 04:58:14 10° S 05:02:39 81° W 05:07:05 10° N
Meteor 2-6 Rocket 4.3 04:57:10 10° NNW 05:03:09 79° W 05:09:04 10° S
Cosmos 2219 Rocket 2.5 04:59:44 10° NNW 05:05:25 71° ENE 05:11:02 10° SE
SL-4 R/B 1.8 05:03:15 13° NW 05:05:57 49° NNE 05:09:02 10° E
Thor Agena Rocket 3.5 05:01:06 10° NNE 05:06:12 82° WNW 05:11:13 10° SSW
S3M 4.5 05:00:17 10° N 05:06:28 64° ENE 05:12:32 10° SSE
Cosmos 1743 2.2 05:04:43 10° S 05:07:56 88° ESE 05:11:13 10° N
Cosmos 2322 Rocket 2.3 05:02:47 10° NNW 05:08:26 62° WSW 05:13:59 10° S
Cosmos 1553 Rocket 4.1 05:02:54 10° NNW 05:09:11 62° W 05:15:29 10° S
Cosmos 1092 Rocket 4.5 05:05:12 10° SW 05:11:00 38° WNW 05:16:47 10° N
Cosmos 1733 2.1 05:10:27 10° SW 05:12:07 29° WNW 05:13:49 10° NNW
IRIDIUM 106 4.4 05:08:34 10° SSW 05:13:40 55° W 05:18:49 10° N
Cosmos 2333 4.3 05:17:07 10° NNW 05:22:50 66° WSW 05:28:26 10° SSE
SJ-12 3.7 05:19:44 10° N 05:23:33 72° WNW 05:27:20 10° SSW
YAOGAN 1 4.4 05:20:49 10° NNE 05:24:46 36° E 05:28:41 10° SSE
COSMOS 2406 4.2 05:20:33 10° WSW 05:25:08 25° NW 05:29:44 10° N
MOS 1 Rocket 3.7 05:22:15 10° NNE 05:27:39 85° WNW 05:32:57 10° SSW
